Tracking 29799 objects as of 10-Oct-2024
HD Live streaming from Space Station
objects crossing your sky now

ONEWEB-0633

Track ONEWEB-0633 now!
10-day predictions
ONEWEB-0633 is classified as:


NORAD ID: 56074
Int'l Code: 2023-043AE
Perigee: 1,207.1 km
Apogee: 1,210.7 km
Inclination: 87.9 °
Period: 109.5 minutes
Semi major axis: 7579 km
RCS: Unknown
Launch date: March 26, 2023
Source: United Kingdom (UK)
Launch site: SRIHARIKOTA (SRI)
Your satellite tracking list
Your tracking list is empty




NASA's NSSDC Master Catalog

Two Line Element Set (TLE):
1 56074U 23043AE  24283.78331414  .00000064  00000-0  13500-3 0  9996
2 56074  87.9117  21.6796 0002405  99.6059 260.5343 13.15550947 75495
Source of the keplerian elements: AFSPC